Orbital Elements at Epoch 2459200.5 (2020-Dec-17.0) TDB
Reference: JPL 31 (heliocentric ecliptic J2000)
Element | Value | Uncertainty (1-sigma) | Units |
e | .144423877172047 | 2.6362e-08 | |
a | 2.24371209121321 | 6.4288e-09 | au |
q | 1.919666491742397 | 5.7348e-08 | au |
i | 5.088558307109404 | 3.2346e-06 | deg |
node | 139.5242369685882 | 4.4681e-05 | deg |
peri | 156.5476313048353 | 4.7111e-05 | deg |
M | 79.91433675694255 | 1.5312e-05 | deg |
tp | 2458927.996981047576 (2020-Mar-19.49698105) | 5.2121e-05 | TDB |
period | 1227.578064262043 3.36 | 5.276e-06 1.444e-08 | d yr |
n | .2932603721755273 | 1.2604e-09 | deg/d |
Q | 2.567757690684024 | 7.3573e-09 | au |
|
| | Orbit Determination Parameters
Additional Information
|